Location: Dürabuch
(48.2640°N, 11.2185°E)
Time: 23:02:59
(UTC+00:00)

Cosmos 1954 Rocket - Pass Details

Date: 23 May 2024
Orbit: 750 x 779 km, 74.0° (Epoch: 14 June)

Event Time Altitude Azimuth Distance (km) Brightness Sun altitude
Exits shadow 00:48:44 29° 228° (SW) 1,408 4.9 -17.8°
Maximum altitude 00:51:22 59° 297° (WNW) 901 4.3 -17.6°
Drops below altitude 10° 00:56:37 10° 17° (NNE) 2,340 7.8 -17.2°
Sets 00:59:04 0° 21° (NNE) 3,269 9.0 -17.0°
